This is the latest recevied weather packets stored in our database for station/object DG1JLA-3. If no packets are shown the sender has not sent any weather packets the latest 10 day(s).
| Time | Temp. | Humidity | Pressure | Rain* | Wind** | Luminosity | Snow |
|---|---|---|---|---|---|---|---|
| 1778015089 | 11.67° C | 93% | 1009.5 hPa | 11.94 mm | - | - | - |
| 1778014789 | 11.67° C | 93% | 1009.6 hPa | 11.68 mm | - | - | - |
| 1778014489 | 11.67° C | 93% | 1009.6 hPa | 11.68 mm | - | - | - |
| 1778014189 | 11.67° C | 93% | 1009.6 hPa | 11.68 mm | - | - | - |
| 1778013889 | 11.67° C | 93% | 1009.6 hPa | 10.67 mm | - | - | - |
| 1778013589 | 12.22° C | 93% | 1009.5 hPa | 9.14 mm | - | - | - |
| 1778013290 | 12.22° C | 93% | 1009.3 hPa | 7.37 mm | - | - | - |
| 1778012989 | 12.22° C | 93% | 1009.3 hPa | 6.1 mm | - | - | - |
| 1778012689 | 12.78° C | 93% | 1009.2 hPa | 5.08 mm | - | - | - |
| 1778012389 | 12.78° C | 93% | 1009.3 hPa | 3.56 mm | - | - | - |
| 1778012090 | 13.33° C | 93% | 1009 hPa | 3.05 mm | - | - | - |
| 1778011789 | 12.78° C | 93% | 1008.4 hPa | 2.54 mm | - | - | - |
| 1778011490 | 12.78° C | 93% | 1007.6 hPa | 2.54 mm | - | - | - |
| 1778011190 | 12.78° C | 93% | 1007.6 hPa | 2.03 mm | - | - | - |
| 1778010890 | 12.78° C | 93% | 1007.7 hPa | 1.78 mm | - | - | - |
| 1778010590 | 12.78° C | 93% | 1007.9 hPa | 1.02 mm | - | - | - |
| 1778010290 | 12.78° C | 93% | 1007.9 hPa | 0.76 mm | - | - | - |
| 1778009990 | 12.78° C | 93% | 1007.7 hPa | 1.02 mm | - | - | - |
| 1778009690 | 12.78° C | 93% | 1007.7 hPa | 1.78 mm | - | - | - |
| 1778009390 | 12.78° C | 92% | 1007.7 hPa | 2.29 mm | - | - | - |
| 1778009090 | 12.78° C | 92% | 1007.5 hPa | 2.54 mm | - | - | - |
| 1778008790 | 13.33° C | 92% | 1007.6 hPa | 3.05 mm | - | - | - |
| 1778008490 | 13.33° C | 92% | 1007.7 hPa | 3.05 mm | - | - | - |
| 1778008190 | 13.33° C | 92% | 1007.8 hPa | 3.05 mm | - | - | - |
| 1778007890 | 13.33° C | 92% | 1007.8 hPa | 2.79 mm | - | - | - |
* Rain latest hour (hover to see other rain measurements)
** Current wind speed in m/s (hover to see current wind gust speed)